When you browse on this site, cookies collect data to enhance your experience and personalize the content and advertising you see.
Visit our Privacy Policy to learn more. By continuing to use the site, you agree to this use of cookies and data.
  • în România
  • Lista ţărilor
  • Pe 7 zile
  • Temperatura apei
  • Hartă satelitară
  • Meteo pe hartă
  • Widget-uri
  • user-avatar
    Intrare

    Meteo pe oră la Bayazitovo

    Astăzi, 23 Iulie, Marţi

    Timp Temperatura Precipitaţii Vânt Presiune Umiditate
    00:00 +15°C° 0 mm 2 m/s 741 mmHg 92%
    01:00 +15°C° 0 mm 2 m/s 741 mmHg 93%
    02:00 +14°C° 0 mm 2 m/s 741 mmHg 94%
    03:00 +14°C° 0 mm 2 m/s 741 mmHg 94%
    04:00 +12°C° 0 mm 3 m/s 741 mmHg 95%
    05:00 +13°C° 0 mm 3 m/s 741 mmHg 94%
    06:00 +14°C° 0 mm 3 m/s 742 mmHg 92%
    07:00 +16°C° 0 mm 3 m/s 742 mmHg 91%
    08:00 +17°C° 0 mm 4 m/s 742 mmHg 86%
    09:00 +18°C° 0 mm 4 m/s 742 mmHg 82%
    10:00 +19°C° 0 mm 5 m/s 742 mmHg 77%
    11:00 +20°C° 0.1 mm 5 m/s 743 mmHg 75%
    12:00 +21°C° 0.1 mm 5 m/s 743 mmHg 72%
    13:00 +22°C° 0.1 mm 5 m/s 743 mmHg 70%
    14:00 +22°C° 0.3 mm 5 m/s 743 mmHg 70%
    15:00 +21°C° 0.3 mm 5 m/s 743 mmHg 71%
    16:00 +21°C° 0.3 mm 5 m/s 743 mmHg 72%
    17:00 +21°C° 0.1 mm 4 m/s 743 mmHg 75%
    18:00 +20°C° 0.1 mm 3 m/s 743 mmHg 79%
    19:00 +20°C° 0.1 mm 3 m/s 743 mmHg 82%
    20:00 +18°C° 0 mm 2 m/s 744 mmHg 86%
    21:00 +17°C° 0 mm 2 m/s 744 mmHg 89%
    22:00 +16°C° 0 mm 2 m/s 744 mmHg 93%
    23:00 +15°C° 0 mm 2 m/s 744 mmHg 94%

    Mâine, 24 Iulie, Miercuri

    Timp Temperatura Precipitaţii Vânt Presiune Umiditate
    00:00 +15°C° 0 mm 2 m/s 744 mmHg 94%
    01:00 +15°C° 0 mm 2 m/s 744 mmHg 95%
    02:00 +14°C° 0 mm 2 m/s 744 mmHg 95%
    03:00 +14°C° 0 mm 2 m/s 744 mmHg 95%
    04:00 +14°C° 0 mm 2 m/s 745 mmHg 95%
    05:00 +15°C° 0 mm 2 m/s 745 mmHg 92%
    06:00 +16°C° 0 mm 2 m/s 745 mmHg 90%
    07:00 +17°C° 0 mm 2 m/s 745 mmHg 88%
    08:00 +18°C° 0 mm 2 m/s 745 mmHg 83%
    09:00 +20°C° 0 mm 2 m/s 745 mmHg 78%
    10:00 +21°C° 0 mm 2 m/s 745 mmHg 73%
    11:00 +23°C° 0 mm 2 m/s 745 mmHg 72%
    12:00 +23°C° 0 mm 2 m/s 745 mmHg 70%
    13:00 +24°C° 0 mm 2 m/s 745 mmHg 68%
    14:00 +24°C° 0 mm 3 m/s 745 mmHg 69%
    15:00 +24°C° 0 mm 3 m/s 745 mmHg 69%
    16:00 +24°C° 0 mm 3 m/s 745 mmHg 70%
    17:00 +24°C° 0 mm 3 m/s 745 mmHg 74%
    18:00 +22°C° 0 mm 3 m/s 745 mmHg 79%
    19:00 +23°C° 0 mm 2 m/s 745 mmHg 83%
    20:00 +20°C° 0 mm 2 m/s 745 mmHg 86%
    21:00 +19°C° 0 mm 2 m/s 745 mmHg 89%
    22:00 +18°C° 0 mm 2 m/s 745 mmHg 92%
    23:00 +17°C° 0 mm 2 m/s 745 mmHg 92%

    Poimâine, 25 Iulie, Joi

    Timp Temperatura Precipitaţii Vânt Presiune Umiditate
    00:00 +17°C° 0 mm 2 m/s 745 mmHg 93%
    01:00 +17°C° 0 mm 2 m/s 746 mmHg 93%
    02:00 +16°C° 0 mm 2 m/s 746 mmHg 93%
    03:00 +16°C° 0 mm 2 m/s 746 mmHg 93%
    04:00 +16°C° 0 mm 2 m/s 746 mmHg 93%
    05:00 +17°C° 0 mm 2 m/s 746 mmHg 91%
    06:00 +18°C° 0 mm 3 m/s 746 mmHg 89%
    07:00 +19°C° 0 mm 3 m/s 746 mmHg 87%
    08:00 +20°C° 0 mm 3 m/s 746 mmHg 84%
    09:00 +21°C° 0 mm 4 m/s 746 mmHg 80%
    10:00 +22°C° 0 mm 4 m/s 746 mmHg 77%
    11:00 +23°C° 0 mm 4 m/s 746 mmHg 76%
    12:00 +23°C° 0 mm 4 m/s 746 mmHg 75%
    13:00 +25°C° 0 mm 4 m/s 746 mmHg 74%
    14:00 +25°C° 0.1 mm 4 m/s 746 mmHg 72%
    15:00 +26°C° 0.1 mm 4 m/s 746 mmHg 70%
    16:00 +26°C° 0.1 mm 4 m/s 746 mmHg 68%
    17:00 +25°C° 0.1 mm 3 m/s 746 mmHg 72%
    18:00 +25°C° 0.1 mm 3 m/s 746 mmHg 76%
    19:00 +24°C° 0.1 mm 3 m/s 745 mmHg 80%
    20:00 +22°C° 0 mm 3 m/s 746 mmHg 83%
    21:00 +20°C° 0 mm 3 m/s 746 mmHg 86%
    22:00 +19°C° 0 mm 3 m/s 746 mmHg 89%
    23:00 +18°C° 0 mm 2 m/s 746 mmHg 90%

    26 Iulie, Vineri

    Timp Temperatura Precipitaţii Vânt Presiune Umiditate
    00:00 +18°C° 0 mm 2 m/s 746 mmHg 91%
    01:00 +17°C° 0 mm 2 m/s 746 mmHg 92%
    02:00 +17°C° 0 mm 2 m/s 746 mmHg 92%
    03:00 +17°C° 0 mm 2 m/s 746 mmHg 93%
    04:00 +16°C° 0 mm 2 m/s 746 mmHg 94%
    05:00 +17°C° 0 mm 2 m/s 746 mmHg 91%
    06:00 +18°C° 0 mm 2 m/s 746 mmHg 88%
    07:00 +19°C° 0 mm 2 m/s 746 mmHg 85%
    08:00 +21°C° 0 mm 2 m/s 746 mmHg 79%
    09:00 +22°C° 0 mm 3 m/s 746 mmHg 73%
    10:00 +24°C° 0 mm 3 m/s 746 mmHg 67%
    11:00 +25°C° 0 mm 3 m/s 746 mmHg 64%
    12:00 +26°C° 0 mm 3 m/s 746 mmHg 61%
    13:00 +27°C° 0 mm 3 m/s 745 mmHg 58%
    14:00 +27°C° 0 mm 3 m/s 745 mmHg 58%
    15:00 +27°C° 0 mm 3 m/s 745 mmHg 58%
    16:00 +27°C° 0 mm 3 m/s 745 mmHg 58%
    17:00 +26°C° 0 mm 3 m/s 744 mmHg 62%
    18:00 +25°C° 0 mm 2 m/s 744 mmHg 66%
    19:00 +24°C° 0 mm 2 m/s 744 mmHg 71%
    20:00 +23°C° 0 mm 1 m/s 744 mmHg 73%
    21:00 +21°C° 0 mm 1 m/s 744 mmHg 76%
    22:00 +19°C° 0 mm 1 m/s 744 mmHg 79%
    23:00 +19°C° 0 mm 1 m/s 743 mmHg 80%

    27 Iulie, Sâmbătă

    Timp Temperatura Precipitaţii Vânt Presiune Umiditate
    00:00 +18°C° 0 mm 1 m/s 743 mmHg 80%
    01:00 +18°C° 0 mm 1 m/s 743 mmHg 80%
    02:00 +16°C° 0 mm 1 m/s 743 mmHg 80%
    03:00 +15°C° 0 mm 0 m/s 742 mmHg 80%
    04:00 +15°C° 0 mm 0 m/s 742 mmHg 80%
    05:00 +16°C° 0 mm 0 m/s 742 mmHg 78%
    06:00 +17°C° 0 mm 0 m/s 742 mmHg 75%
    07:00 +18°C° 0 mm 0 m/s 742 mmHg 73%
    08:00 +21°C° 0 mm 1 m/s 741 mmHg 70%
    09:00 +22°C° 0 mm 1 m/s 741 mmHg 66%
    10:00 +24°C° 0 mm 1 m/s 741 mmHg 62%
    11:00 +25°C° 0 mm 1 m/s 740 mmHg 59%
    12:00 +26°C° 0 mm 1 m/s 740 mmHg 56%
    13:00 +26°C° 0 mm 1 m/s 740 mmHg 53%
    14:00 +27°C° 0 mm 1 m/s 739 mmHg 52%
    15:00 +27°C° 0 mm 1 m/s 739 mmHg 51%
    16:00 +27°C° 0 mm 1 m/s 738 mmHg 50%
    17:00 +26°C° 0 mm 1 m/s 738 mmHg 56%
    18:00 +25°C° 0 mm 1 m/s 737 mmHg 62%
    19:00 +24°C° 0 mm 1 m/s 737 mmHg 68%
    20:00 +22°C° 0 mm 1 m/s 737 mmHg 71%
    21:00 +21°C° 0 mm 1 m/s 736 mmHg 74%
    22:00 +19°C° 0 mm 1 m/s 736 mmHg 77%
    23:00 +19°C° 0 mm 1 m/s 735 mmHg 78%

    28 Iulie, Duminică

    Timp Temperatura Precipitaţii Vânt Presiune Umiditate
    00:00 +18°C° 0 mm 1 m/s 735 mmHg 80%
    01:00 +18°C° 0 mm 1 m/s 734 mmHg 82%
    02:00 +18°C° 0 mm 1 m/s 734 mmHg 82%
    03:00 +18°C° 0 mm 1 m/s 733 mmHg 83%
    04:00 +16°C° 0 mm 1 m/s 733 mmHg 84%
    05:00 +18°C° 0.1 mm 1 m/s 733 mmHg 83%
    06:00 +19°C° 0.1 mm 1 m/s 732 mmHg 82%
    07:00 +19°C° 0.1 mm 2 m/s 732 mmHg 80%
    08:00 +21°C° 0.9 mm 2 m/s 731 mmHg 77%
    09:00 +23°C° 0.9 mm 2 m/s 731 mmHg 74%
    10:00 +24°C° 0.9 mm 3 m/s 730 mmHg 71%
    11:00 +24°C° 1.7 mm 3 m/s 730 mmHg 70%
    12:00 +24°C° 1.7 mm 3 m/s 730 mmHg 69%
    13:00 +25°C° 1.7 mm 3 m/s 729 mmHg 68%
    14:00 +23°C° 1.6 mm 4 m/s 729 mmHg 72%
    15:00 +22°C° 1.6 mm 5 m/s 729 mmHg 76%
    16:00 +21°C° 1.6 mm 5 m/s 729 mmHg 80%
    17:00 +19°C° 0.3 mm 5 m/s 729 mmHg 85%
    18:00 +17°C° 0.3 mm 5 m/s 729 mmHg 89%
    19:00 +15°C° 0.3 mm 5 m/s 729 mmHg 94%
    20:00 +14°C° 0 mm 5 m/s 729 mmHg 93%
    21:00 +13°C° 0 mm 5 m/s 729 mmHg 93%
    22:00 +13°C° 0 mm 4 m/s 729 mmHg 93%
    23:00 +12°C° 0 mm 4 m/s 729 mmHg 93%
    Arată mai mult